COSMOS 2458 (734)

Last updated on March 3, 2019, 3:10 a.m. UTC

1 36113U 09070C   19061.48049084 -.00000040  00000-0  10000-3 0  9993
2 36113  64.1827 162.1919 0002537  40.6396 243.1729  2.13091333 71706
UTC
Height (km)
Latitude
Longitude
Inclination
Orbital Period
UTC large
Height (km)
Speed (km/s)
/
Latitude / Longitude
Inclination (degrees)
Orbital Period (minutes)
Azimuth
Elevation
Range (km)
Doppler Factor
iOS Compass Heading
iOS Angle

Next 30 passes for location: Hong Kong

Rise time Rise Azimuth (degrees) Set time Set Azimuth (degrees) Duration Max altitude (degrees)

No matching passes for this satellites